Wind_Speed
26 27 28 28 28 29 31 32 34 33 33 32 32 32 33 34 34 34 35 35 36 36 37 38 38 38 39 39 40 41 42 42 43 44 46 46 47 47 48 49 49 49 50 51
28 28 29 30 29 30 31 31 33 33 33 32 33 34 34 35 35 36 37 37 37 38 38 38 39 39 39 40 41 41 42 43 44 44 45 47 47 48 48 49 49 50 50 50
28 29 30 31 29 30 31 31 33 33 33 33 34 34 34 35 36 36 37 37 38 38 39 39 39 39 40 41 41 42 43 44 44 45 45 46 47 47 48 48 49 49 49 50
30 31 32 30 29 30 31 31 32 33 34 34 35 35 36 36 37 37 38 38 38 39 40 40 40 40 41 41 42 43 43 44 44 45 45 45 46 46 47 48 49 49 50 50
33 34 33 31 31 30 31 31 31 32 33 34 35 35 36 36 37 37 38 38 39 39 40 40 40 41 41 42 42 43 43 44 44 44 44 44 45 46 47 48 49 49 49 50
32 33 33 31 31 31 32 32 31 33 33 34 34 35 35 36 37 37 38 38 39 39 39 40 40 41 41 42 42 43 43 44 44 44 44 44 45 45 46 47 48 48 48 49
30 32 33 32 32 32 32 32 32 32 32 33 34 34 35 36 36 37 37 38 38 38 39 40 40 41 41 42 42 43 43 43 44 44 44 45 45 45 46 46 47 47 47 48
30 31 31 30 31 31 31 31 32 32 33 33 34 35 35 36 36 37 38 38 38 39 39 40 40 40 40 41 42 43 43 44 44 44 44 44 45 45 46 46 46 46 46 46
29 30 29 30 31 31 30 31 31 32 33 34 34 35 36 37 38 38 38 38 38 39 39 39 39 40 41 41 42 42 42 43 44 44 44 44 44 45 46 46 47 46 46 46
29 28 28 29 30 31 31 32 32 33 33 34 35 36 37 38 38 38 38 38 38 38 39 39 40 41 42 43 43 43 43 43 43 43 43 44 45 46 46 46 47 47 47 46
27 28 29 29 30 31 32 33 34 34 35 35 35 36 36 37 38 38 38 38 39 39 39 40 41 42 43 43 42 42 42 42 42 42 43 44 45 45 45 46 46 47 47 47
27 28 29 29 30 30 31 32 34 35 35 36 35 36 36 36 37 37 37 38 38 39 40 41 41 42 42 42 42 41 41 42 42 42 43 44 44 45 45 45 46 46 46 46
27 28 29 30 32 33 33 34 35 35 35 35 36 36 36 36 37 37 38 38 39 39 40 40 41 41 41 41 41 40 41 41 42 42 43 43 44 44 44 45 45 45 45 45
28 28 30 31 32 33 34 35 35 35 35 35 35 36 36 37 37 37 38 38 39 40 40 40 40 40 40 40 40 40 40 41 42 42 42 42 43 43 43 43 43 43 43 43
28 29 30 31 32 33 34 34 34 34 34 35 35 36 36 37 37 37 38 38 38 39 40 40 39 39 39 39 39 39 39 40 40 40 41 41 41 42 42 42 41 40 40 40
29 29 30 31 31 32 32 33 33 34 34 35 36 36 37 37 38 38 38 38 39 39 38 38 39 39 39 39 38 38 38 38 38 39 39 40 40 40 40 40 39 39 38 37
29 29 30 30 31 32 32 32 33 33 34 34 35 36 36 37 37 38 38 38 38 38 38 38 37 37 37 37 37 37 37 37 38 38 38 39 39 38 38 37 36 36 35 35
28 29 29 30 30 31 31 32 33 34 35 35 36 36 36 37 37 37 37 37 37 37 37 37 37 37 37 37 37 37 37 37 38 38 38 38 37 36 36 35 34 34 33 32
28 28 29 29 30 30 31 31 32 33 34 34 35 36 37 36 36 36 36 36 37 37 36 37 37 37 37 37 37 37 37 37 37 37 37 36 36 35 34 33 33 32 31 30
29 29 30 30 30 30 31 31 32 33 33 34 35 35 35 35 35 35 36 36 36 36 36 37 37 37 37 37 37 36 36 36 36 36 36 35 34 34 33 32 31 30 30 29
30 30 30 30 30 30 31 31 32 32 33 34 34 34 34 34 34 34 35 35 36 36 36 36 36 36 36 36 36 36 36 35 35 35 34 34 33 32 31 30 30 29 29 28
30 30 29 29 29 30 30 31 32 33 33 34 33 33 32 32 33 34 35 35 36 36 36 36 36 36 36 35 35 35 34 34 34 34 33 32 31 30 30 29 29 28 27 26
28 28 28 29 29 30 31 31 31 32 32 32 32 32 31 32 34 35 35 35 36 36 36 36 36 35 35 34 34 33 33 33 33 32 31 30 29 28 28 28 27 26 26 25
27 28 28 29 29 30 30 31 31 31 31 31 31 32 32 33 34 35 36 36 36 36 36 35 35 34 34 33 32 32 32 31 31 30 30 29 28 27 27 26 26 25 25 24
27 28 28 29 29 30 30 30 30 30 30 30 31 32 33 33 34 35 35 35 35 35 34 34 33 33 32 31 30 30 29 29 29 28 27 27 26 26 26 26 25 25 24 23
27 28 28 29 29 29 29 29 29 29 29 30 31 31 32 33 33 33 33 33 33 33 32 32 31 30 29 28 28 27 27 27 26 26 26 26 25 25 25 24 24 23 23 22
27 28 28 28 28 28 28 28 29 29 30 30 31 31 32 32 33 33 32 32 32 32 31 30 29 28 27 27 26 26 26 26 26 25 25 25 24 24 23 23 23 22 21 21
Wind_Direction
270 271 271 271 272 273 273 274 275 278 279 280 280 280 280 281 282 283 283 283 282 282 281 281 281 280 280 280 281 281 281 281 282 283 282 282 282 282 281 281 282 281 281 280
269 270 271 271 274 276 276 276 277 278 279 281 281 281 281 282 283 283 283 283 282 282 282 282 282 281 281 281 282 282 282 282 283 284 283 283 283 283 282 282 282 282 282 282
269 271 272 273 275 276 277 278 278 278 279 280 280 280 281 282 283 284 284 283 282 282 282 282 282 282 282 282 282 283 283 284 284 285 285 285 284 284 284 283 282 283 283 283
270 271 273 276 277 277 278 280 281 280 279 280 280 280 281 282 284 284 284 284 283 282 282 282 282 282 282 282 283 284 284 285 285 285 286 286 285 285 285 284 284 284 284 284
271 274 276 277 279 280 281 281 282 283 282 281 282 282 282 284 284 284 284 284 284 284 284 283 283 283 283 283 284 285 286 286 286 286 286 286 286 286 285 285 285 285 285 285
273 275 277 279 280 280 282 283 284 285 284 283 283 284 284 285 285 285 284 285 285 285 285 285 285 285 285 285 285 285 286 286 286 286 286 286 287 287 287 286 286 286 287 286
276 276 277 280 281 282 283 285 286 286 286 285 284 284 285 285 285 285 286 286 287 287 286 286 286 286 286 286 287 286 286 286 286 287 287 286 287 287 288 288 287 287 287 287
276 277 278 280 281 282 283 284 284 286 286 285 284 284 285 286 286 286 287 287 288 288 287 287 287 287 287 287 288 288 287 287 287 287 287 287 287 288 289 288 288 288 288 287
277 278 279 279 280 282 283 283 284 285 285 285 285 285 286 286 287 287 288 288 288 288 288 288 288 288 288 289 289 289 288 288 288 288 288 288 288 288 289 289 288 288 288 287
278 278 278 279 281 282 283 283 284 285 286 285 286 287 288 288 288 288 287 288 289 289 289 289 289 289 289 290 290 289 289 289 289 289 288 289 289 289 290 290 289 289 288 288
279 279 279 280 282 282 283 284 285 287 288 288 288 289 289 289 289 288 288 288 290 290 290 290 291 291 291 291 291 290 290 290 290 290 290 291 291 291 291 291 291 290 290 289
280 281 282 282 281 282 284 287 288 288 289 289 289 290 291 291 291 290 290 290 291 291 291 292 292 292 292 291 291 291 291 291 291 291 292 292 293 293 293 293 292 291 291 291
282 281 281 281 281 282 284 286 288 288 289 289 289 289 290 291 292 292 292 292 293 293 293 293 293 294 293 293 293 293 293 293 293 293 293 294 294 294 294 294 294 293 292 291
284 285 284 283 283 284 285 286 287 287 287 288 288 290 291 291 291 292 293 294 294 294 294 294 294 295 295 294 295 295 294 294 294 294 294 295 296 296 296 295 294 294 293 292
285 285 286 287 286 286 286 286 287 288 289 289 290 291 292 292 292 293 294 294 295 295 295 295 295 295 295 295 296 296 296 295 295 295 295 296 297 297 297 298 297 295 294 293
287 288 289 289 288 289 289 289 289 290 291 291 291 291 292 293 293 294 294 295 296 297 297 297 297 296 295 296 296 297 297 296 297 297 297 298 299 299 299 299 299 298 296 295
289 290 290 290 289 290 290 291 291 292 292 293 293 293 294 294 295 295 296 296 296 297 297 298 298 298 297 297 297 297 297 297 298 299 300 301 302 301 301 300 301 301 299 298
291 291 291 292 292 291 291 292 293 293 292 292 294 295 295 296 296 297 297 297 298 298 299 299 299 299 298 298 298 298 297 297 298 299 300 301 302 302 302 301 301 301 301 300
293 293 293 294 293 292 293 294 295 295 295 295 296 297 297 297 297 297 298 298 299 299 299 299 300 299 299 298 298 298 298 298 298 299 300 301 301 302 303 303 302 302 302 302
294 294 294 294 294 294 295 296 297 297 297 297 298 299 299 298 298 299 299 299 299 299 299 300 300 300 299 298 298 298 298 299 299 299 299 300 301 302 302 302 303 303 302 302
294 294 294 295 295 296 296 297 298 298 298 299 300 300 300 299 300 301 301 301 301 301 301 301 301 300 299 298 298 298 298 299 299 299 299 300 300 301 302 302 302 302 302 302
296 295 295 296 297 297 298 298 299 300 301 301 302 302 302 301 302 303 303 303 302 302 302 302 302 301 300 299 298 298 298 298 299 299 299 299 300 300 301 302 302 303 302 302
298 297 297 298 299 299 300 301 301 303 304 304 304 304 304 303 304 304 304 304 304 304 303 303 303 302 300 299 299 298 298 298 299 299 299 298 298 299 300 301 302 303 303 303
299 299 300 300 300 301 302 303 304 305 306 306 306 305 305 305 305 305 305 305 305 305 304 303 302 302 301 300 299 299 298 298 299 299 298 298 298 298 299 300 301 302 303 303
299 300 300 301 302 303 303 304 305 305 306 307 307 307 308 308 308 308 308 307 307 306 306 305 304 303 302 302 301 300 300 299 300 299 298 298 297 297 298 299 300 300 301 301
300 301 302 303 303 304 304 305 306 306 307 308 308 309 310 310 311 311 310 310 309 309 308 308 307 306 305 304 303 302 302 302 302 302 300 299 297 297 297 298 299 300 299 299
302 303 304 305 305 306 306 307 307 307 308 308 309 310 311 312 312 312 311 311 311 311 310 310 309 307 306 306 305 304 303 303 303 304 303 301 300 299 298 298 299 299 299 298
Height
5610 5610 5609 5609 5609 5608 5607 5606 5605 5606 5605 5605 5603 5601 5600 5598 5596 5595 5593 5591 5589 5587 5585 5583 5581 5579 5577 5575 5572 5570 5568 5565 5562 5560 5557 5554 5551 5548 5544 5541 5538 5534 5531 5528
5602 5601 5600 5600 5601 5600 5598 5597 5596 5595 5596 5596 5593 5591 5589 5588 5586 5584 5582 5580 5578 5576 5574 5572 5570 5568 5566 5563 5561 5558 5556 5553 5550 5547 5544 5540 5537 5534 5530 5527 5523 5520 5517 5513
5593 5593 5591 5591 5594 5591 5590 5589 5587 5586 5587 5584 5583 5581 5579 5577 5576 5574 5572 5569 5567 5565 5563 5560 5558 5556 5554 5551 5549 5546 5543 5540 5537 5534 5530 5527 5523 5520 5516 5513 5509 5506 5502 5498
5583 5584 5581 5587 5584 5583 5581 5580 5578 5577 5576 5574 5572 5571 5569 5567 5565 5563 5561 5558 5556 5554 5551 5549 5547 5544 5541 5539 5536 5533 5530 5527 5524 5520 5517 5513 5510 5506 5503 5499 5495 5491 5488 5484
5574 5573 5573 5576 5575 5573 5571 5570 5569 5567 5565 5563 5562 5560 5559 5556 5554 5552 5550 5547 5545 5542 5540 5537 5534 5532 5529 5526 5523 5520 5517 5514 5511 5507 5504 5500 5496 5492 5489 5485 5481 5477 5473 5469
5565 5564 5564 5567 5565 5563 5562 5561 5560 5557 5555 5553 5551 5550 5549 5546 5543 5541 5538 5536 5533 5531 5528 5525 5522 5520 5517 5514 5511 5508 5504 5501 5497 5494 5490 5487 5483 5479 5475 5471 5467 5463 5459 5455
5557 5555 5555 5556 5555 5553 5553 5553 5549 5547 5545 5543 5541 5540 5538 5535 5532 5529 5527 5524 5522 5519 5516 5513 5510 5508 5505 5501 5498 5495 5491 5488 5484 5481 5477 5473 5469 5465 5461 5457 5453 5449 5445 5441
5548 5547 5549 5547 5545 5544 5543 5541 5539 5536 5535 5533 5531 5528 5526 5524 5521 5519 5516 5513 5510 5508 5505 5502 5499 5496 5493 5489 5486 5482 5478 5475 5471 5467 5463 5459 5456 5451 5447 5443 5439 5435 5431 5427
5541 5541 5539 5537 5536 5534 5533 5531 5529 5527 5525 5523 5520 5518 5515 5513 5510 5507 5505 5502 5499 5496 5493 5490 5487 5484 5480 5477 5473 5469 5466 5462 5458 5454 5450 5446 5442 5438 5433 5429 5425 5421 5417 5413
5531 5531 5530 5528 5526 5525 5523 5521 5519 5517 5515 5512 5510 5508 5505 5502 5499 5496 5493 5490 5488 5485 5481 5478 5475 5471 5468 5464 5460 5457 5453 5449 5445 5441 5437 5433 5428 5424 5420 5415 5411 5406 5402 5398
5523 5522 5520 5520 5518 5516 5514 5512 5510 5507 5505 5502 5500 5497 5494 5491 5488 5485 5482 5479 5476 5473 5470 5466 5463 5459 5455 5451 5448 5444 5440 5436 5432 5428 5424 5420 5415 5410 5406 5401 5396 5392 5388 5384
5515 5514 5512 5511 5508 5506 5504 5502 5500 5497 5495 5492 5489 5486 5483 5480 5477 5474 5471 5468 5465 5461 5458 5454 5450 5447 5443 5439 5435 5431 5428 5424 5420 5416 5411 5407 5402 5397 5392 5387 5382 5377 5373 5369
5507 5505 5503 5501 5499 5497 5494 5492 5489 5487 5484 5481 5478 5476 5473 5469 5466 5463 5459 5456 5453 5449 5446 5442 5438 5434 5431 5427 5423 5419 5415 5411 5407 5403 5398 5394 5389 5385 5380 5375 5369 5364 5360 5355
5498 5496 5494 5492 5489 5487 5484 5481 5479 5476 5473 5471 5468 5465 5462 5459 5455 5452 5449 5445 5442 5438 5434 5430 5426 5423 5419 5415 5411 5407 5403 5399 5395 5390 5386 5381 5377 5372 5367 5362 5358 5352 5347 5343
5489 5487 5485 5482 5480 5477 5474 5471 5469 5466 5463 5460 5457 5454 5451 5448 5445 5441 5438 5434 5430 5426 5422 5419 5415 5411 5407 5404 5400 5395 5391 5387 5383 5378 5374 5369 5364 5360 5355 5350 5345 5340 5335 5331
5480 5478 5475 5473 5470 5467 5464 5462 5459 5456 5453 5450 5447 5444 5441 5437 5434 5430 5427 5423 5419 5415 5411 5408 5404 5400 5396 5392 5388 5384 5380 5376 5371 5367 5362 5358 5353 5348 5343 5338 5333 5328 5324 5319
5472 5469 5467 5464 5461 5458 5455 5452 5449 5446 5443 5440 5437 5433 5430 5426 5423 5419 5416 5412 5408 5404 5401 5397 5393 5389 5385 5381 5377 5373 5369 5365 5361 5356 5351 5347 5342 5337 5332 5327 5322 5317 5313 5308
5463 5460 5458 5455 5452 5449 5446 5443 5439 5436 5433 5430 5426 5423 5419 5415 5412 5408 5405 5401 5397 5393 5390 5386 5382 5378 5374 5370 5366 5362 5358 5354 5350 5345 5341 5336 5331 5326 5321 5317 5312 5308 5303 5298
5455 5452 5449 5446 5442 5439 5436 5433 5430 5426 5422 5419 5416 5412 5408 5405 5401 5398 5394 5390 5386 5383 5379 5375 5371 5367 5363 5359 5355 5351 5347 5343 5339 5334 5330 5325 5321 5316 5312 5307 5303 5298 5294 5290
5446 5443 5440 5437 5434 5430 5427 5424 5420 5416 5413 5409 5405 5402 5398 5394 5391 5387 5383 5379 5376 5372 5368 5364 5360 5356 5352 5348 5344 5340 5336 5332 5328 5324 5319 5315 5311 5306 5302 5298 5294 5290 5286 5282
5437 5434 5431 5428 5425 5421 5418 5415 5411 5407 5403 5400 5396 5391 5388 5384 5380 5377 5373 5369 5365 5361 5357 5353 5349 5345 5341 5337 5333 5329 5325 5321 5317 5313 5309 5305 5301 5297 5293 5289 5285 5281 5277 5273
5428 5425 5422 5419 5415 5412 5409 5405 5402 5398 5394 5390 5386 5382 5378 5374 5371 5367 5362 5359 5354 5350 5346 5342 5338 5334 5330 5326 5322 5318 5314 5311 5307 5303 5299 5295 5291 5288 5284 5280 5277 5273 5269 5265
5419 5416 5413 5410 5407 5403 5400 5396 5392 5389 5385 5381 5377 5373 5369 5365 5361 5357 5353 5348 5344 5339 5335 5331 5327 5323 5319 5315 5311 5308 5304 5300 5297 5293 5289 5286 5282 5279 5276 5272 5268 5265 5261 5258
5411 5407 5404 5401 5398 5395 5391 5387 5383 5380 5376 5372 5368 5364 5360 5356 5351 5347 5342 5338 5333 5329 5325 5320 5316 5312 5308 5304 5301 5297 5294 5290 5287 5283 5280 5276 5273 5270 5267 5264 5260 5257 5254 5251
5402 5399 5396 5393 5389 5386 5382 5379 5375 5371 5367 5363 5359 5355 5351 5346 5342 5337 5332 5327 5323 5318 5314 5310 5305 5302 5298 5294 5291 5287 5284 5280 5277 5274 5271 5267 5265 5262 5259 5256 5253 5250 5247 5244
5394 5391 5388 5384 5381 5377 5374 5370 5367 5363 5359 5355 5351 5347 5342 5337 5332 5327 5323 5318 5313 5308 5304 5300 5296 5292 5288 5285 5281 5278 5275 5272 5268 5265 5262 5259 5256 5253 5251 5248 5245 5242 5240 5237
5386 5383 5379 5376 5373 5369 5366 5362 5359 5355 5351 5347 5343 5338 5333 5329 5324 5319 5314 5309 5304 5299 5295 5291 5287 5283 5280 5276 5273 5270 5267 5263 5260 5257 5254 5251 5248 5245 5243 5240 5238 5235 5233 5230